Temp: 22.0°C   Baro: 1020.9mb
  Wind: 2.0mph   Dir: W (268°)
  Rain: 0.0mm (0.0mm/hr)
  Solar: 72W/m2  Hum: 78%
 
Bath Spa Weather Historical Data
Daily Summary for July 13, 2019 Units:  Metric    English   Both
Next Day »
Daily Weekly Monthly Yearly Custom
  High: Low: Average:
Temperature: 22.0 °C 12.2 °C 16.9 °C
Dew Point: 14.6 °C 10.3 °C 12.3 °C
Humidity: 89% 57% 75%
Wind Speed: 24.1km/h 0.0km/h 3.7km/h
Wind Gust: 24.1km/h - -
Wind direction- - SSW
Pressure: 1023.2 hPa 1020.5 hPa -
Precipitation: 0.0 mm    
Historical Graphs
 
 
Tabular Data for July 13, 2019
Time Temperature Dew Point Pressure Wind direction Wind Speed Wind Gust Humidity Rainfall Rate (Hourly) solar
00:04 15.7 °C 11.7 °C 1020.9 hPa Calm     77% 0.0 mm 0.00 W/m2
00:09 15.5 °C 11.5 °C 1020.9 hPa Calm     77% 0.0 mm 0.00 W/m2
00:14 15.3 °C 11.5 °C 1020.5 hPa WNW 3.2 km/h 3.2 km/h 78% 0.0 mm 0.00 W/m2
00:19 15.1 °C 11.3 °C 1020.5 hPa WNW 3.2 km/h 6.4 km/h 78% 0.0 mm 0.00 W/m2
00:24 14.9 °C 11.3 °C 1020.5 hPa WNW 1.4 km/h 4.8 km/h 79% 0.0 mm 0.00 W/m2
00:29 14.8 °C 11.2 °C 1020.5 hPa WNW 3.2 km/h 3.2 km/h 79% 0.0 mm 0.00 W/m2
00:34 14.8 °C 11.4 °C 1020.5 hPa WNW 1.4 km/h 3.2 km/h 80% 0.0 mm 0.00 W/m2
00:39 14.7 °C 11.3 °C 1020.5 hPa WNW 1.4 km/h 4.8 km/h 80% 0.0 mm 0.00 W/m2
00:44 14.5 °C 11.1 °C 1020.5 hPa WNW 1.4 km/h 4.8 km/h 80% 0.0 mm 0.00 W/m2
00:49 14.5 °C 11.3 °C 1020.9 hPa Calm   3.2 km/h 81% 0.0 mm 0.00 W/m2
00:54 14.5 °C 11.3 °C 1020.9 hPa WNW 1.4 km/h 3.2 km/h 81% 0.0 mm 0.00 W/m2
00:59 14.5 °C 11.3 °C 1020.5 hPa WNW 1.4 km/h 4.8 km/h 81% 0.0 mm 0.00 W/m2
01:04 14.4 °C 11.2 °C 1020.9 hPa WNW 1.4 km/h 6.4 km/h 81% 0.0 mm 0.00 W/m2
01:09 14.4 °C 11.4 °C 1020.9 hPa Calm   4.8 km/h 82% 0.0 mm 0.00 W/m2
01:14 14.3 °C 11.3 °C 1020.9 hPa Calm     82% 0.0 mm 0.00 W/m2
01:19 14.3 °C 11.3 °C 1020.9 hPa Calm     82% 0.0 mm 0.00 W/m2
01:24 14.2 °C 11.2 °C 1020.9 hPa WNW 1.4 km/h 3.2 km/h 82% 0.0 mm 0.00 W/m2
01:29 14.1 °C 11.1 °C 1020.9 hPa WNW 1.4 km/h 3.2 km/h 82% 0.0 mm 0.00 W/m2
01:34 14.1 °C 11.3 °C 1020.9 hPa WNW 1.4 km/h 3.2 km/h 83% 0.0 mm 0.00 W/m2
01:39 14.1 °C 11.3 °C 1020.9 hPa Calm   4.8 km/h 83% 0.0 mm 0.00 W/m2
01:44 14.1 °C 11.3 °C 1020.9 hPa WNW 1.4 km/h 4.8 km/h 83% 0.0 mm 0.00 W/m2
01:49 14.1 °C 11.3 °C 1020.9 hPa WNW 1.4 km/h 4.8 km/h 83% 0.0 mm 0.00 W/m2
01:54 14.1 °C 11.3 °C 1020.9 hPa WNW 3.2 km/h 3.2 km/h 83% 0.0 mm 0.00 W/m2
01:59 14.0 °C 11.2 °C 1021.2 hPa Calm   4.8 km/h 83% 0.0 mm 0.00 W/m2
02:04 14.0 °C 11.2 °C 1020.9 hPa Calm   1.6 km/h 83% 0.0 mm 0.00 W/m2
02:09 13.9 °C 11.1 °C 1021.2 hPa Calm   1.6 km/h 83% 0.0 mm 0.00 W/m2
02:14 13.9 °C 11.1 °C 1020.9 hPa WNW 1.4 km/h 4.8 km/h 83% 0.0 mm 0.00 W/m2
02:19 13.7 °C 10.9 °C 1021.2 hPa WNW 1.4 km/h 3.2 km/h 83% 0.0 mm 0.00 W/m2
02:24 13.7 °C 11.0 °C 1021.2 hPa WNW 4.8 km/h 4.8 km/h 84% 0.0 mm 0.00 W/m2
02:29 13.7 °C 11.0 °C 1021.2 hPa Calm   3.2 km/h 84% 0.0 mm 0.00 W/m2
02:34 13.7 °C 11.0 °C 1021.2 hPa Calm   3.2 km/h 84% 0.0 mm 0.00 W/m2
02:39 13.5 °C 10.8 °C 1021.2 hPa WNW 1.4 km/h 4.8 km/h 84% 0.0 mm 0.00 W/m2
02:44 13.5 °C 10.8 °C 1021.2 hPa Calm   3.2 km/h 84% 0.0 mm 0.00 W/m2
02:49 13.5 °C 11.0 °C 1020.9 hPa Calm     85% 0.0 mm 0.00 W/m2
02:54 13.5 °C 11.0 °C 1020.9 hPa Calm     85% 0.0 mm 0.00 W/m2
02:59 13.5 °C 11.0 °C 1020.9 hPa Calm     85% 0.0 mm 0.00 W/m2
03:04 13.4 °C 10.9 °C 1020.9 hPa Calm     85% 0.0 mm 0.00 W/m2
03:09 13.4 °C 10.9 °C 1020.9 hPa Calm     85% 0.0 mm 0.00 W/m2
03:14 13.4 °C 10.9 °C 1020.9 hPa Calm     85% 0.0 mm 0.00 W/m2
03:19 13.2 °C 10.7 °C 1020.9 hPa Calm     85% 0.0 mm 0.00 W/m2
03:24 13.1 °C 10.6 °C 1020.9 hPa Calm   3.2 km/h 85% 0.0 mm 0.00 W/m2
03:29 13.0 °C 10.5 °C 1020.9 hPa Calm   3.2 km/h 85% 0.0 mm 0.00 W/m2
03:34 13.0 °C 10.7 °C 1021.2 hPa WNW 1.4 km/h 1.6 km/h 86% 0.0 mm 0.00 W/m2
03:39 13.0 °C 10.7 °C 1021.2 hPa Calm   1.6 km/h 86% 0.0 mm 0.00 W/m2
03:44 13.0 °C 10.7 °C 1020.9 hPa Calm     86% 0.0 mm 0.00 W/m2
03:49 13.0 °C 10.7 °C 1020.9 hPa Calm     86% 0.0 mm 0.00 W/m2
03:54 13.0 °C 10.7 °C 1021.2 hPa Calm     86% 0.0 mm 0.00 W/m2
03:59 13.0 °C 10.7 °C 1021.2 hPa Calm     86% 0.0 mm 0.00 W/m2
04:04 12.9 °C 10.6 °C 1021.2 hPa WNW 1.6 km/h 1.6 km/h 86% 0.0 mm 0.00 W/m2
04:09 12.9 °C 10.6 °C 1021.2 hPa Calm     86% 0.0 mm 0.00 W/m2
04:14 12.8 °C 10.7 °C 1021.2 hPa Calm     87% 0.0 mm 0.00 W/m2
04:19 12.8 °C 10.7 °C 1021.2 hPa Calm     87% 0.0 mm 0.00 W/m2
04:24 12.7 °C 10.6 °C 1021.2 hPa Calm     87% 0.0 mm 0.00 W/m2
04:29 12.6 °C 10.5 °C 1021.2 hPa Calm     87% 0.0 mm 0.00 W/m2
04:34 12.7 °C 10.6 °C 1021.2 hPa Calm     87% 0.0 mm 0.00 W/m2
04:39 12.6 °C 10.5 °C 1021.2 hPa Calm     87% 0.0 mm 0.00 W/m2
04:44 12.6 °C 10.5 °C 1021.2 hPa Calm     87% 0.0 mm 0.00 W/m2
04:49 12.6 °C 10.5 °C 1021.2 hPa Calm     87% 0.0 mm 0.00 W/m2
04:54 12.4 °C 10.3 °C 1021.2 hPa WNW 1.4 km/h 1.6 km/h 87% 0.0 mm 0.00 W/m2
04:59 12.4 °C 10.3 °C 1021.6 hPa Calm   4.8 km/h 87% 0.0 mm 0.00 W/m2
05:04 12.4 °C 10.5 °C 1021.6 hPa Calm     88% 0.0 mm 0.00 W/m2
05:09 12.3 °C 10.4 °C 1021.6 hPa Calm     88% 0.0 mm 0.00 W/m2
05:14 12.3 °C 10.4 °C 1021.6 hPa Calm     88% 0.0 mm 0.00 W/m2
05:19 12.2 °C 10.3 °C 1021.6 hPa Calm     88% 0.0 mm 5.00 W/m2
05:24 12.2 °C 10.3 °C 1021.6 hPa Calm     88% 0.0 mm 7.00 W/m2
05:29 12.3 °C 10.4 °C 1021.6 hPa Calm     88% 0.0 mm 11.00 W/m2
05:34 12.3 °C 10.4 °C 1021.6 hPa Calm     88% 0.0 mm 14.00 W/m2
05:39 12.4 °C 10.5 °C 1021.6 hPa Calm     88% 0.0 mm 19.00 W/m2
05:44 12.3 °C 10.4 °C 1021.6 hPa WNW 1.6 km/h 1.6 km/h 88% 0.0 mm 21.00 W/m2
05:49 12.3 °C 10.4 °C 1021.6 hPa Calm   1.6 km/h 88% 0.0 mm 25.00 W/m2
05:54 12.3 °C 10.5 °C 1021.9 hPa Calm     89% 0.0 mm 28.00 W/m2
05:59 12.4 °C 10.6 °C 1021.9 hPa Calm     89% 0.0 mm 30.00 W/m2
06:04 12.4 °C 10.6 °C 1021.9 hPa Calm     89% 0.0 mm 33.00 W/m2
06:09 12.5 °C 10.7 °C 1021.9 hPa Calm     89% 0.0 mm 32.00 W/m2
06:14 12.7 °C 10.9 °C 1021.9 hPa Calm     89% 0.0 mm 35.00 W/m2
06:19 12.8 °C 11.0 °C 1021.9 hPa Calm   1.6 km/h 89% 0.0 mm 37.00 W/m2
06:24 13.0 °C 11.2 °C 1021.9 hPa Calm     89% 0.0 mm 42.00 W/m2
06:29 13.2 °C 11.4 °C 1021.9 hPa Calm     89% 0.0 mm 53.00 W/m2
06:34 13.3 °C 11.5 °C 1021.9 hPa Calm     89% 0.0 mm 58.00 W/m2
06:39 13.4 °C 11.5 °C 1021.9 hPa Calm     88% 0.0 mm 65.00 W/m2
06:44 13.5 °C 11.7 °C 1021.9 hPa Calm     89% 0.0 mm 77.00 W/m2
06:49 13.5 °C 11.6 °C 1021.9 hPa Calm   3.2 km/h 88% 0.0 mm 84.00 W/m2
06:54 13.7 °C 11.7 °C 1022.2 hPa Calm   3.2 km/h 88% 0.0 mm 72.00 W/m2
06:59 13.7 °C 11.7 °C 1022.2 hPa WNW 1.4 km/h 3.2 km/h 88% 0.0 mm 60.00 W/m2
07:04 13.8 °C 11.8 °C 1022.2 hPa Calm   1.6 km/h 88% 0.0 mm 63.00 W/m2
07:09 13.8 °C 11.8 °C 1022.2 hPa Calm   1.6 km/h 88% 0.0 mm 54.00 W/m2
07:14 13.9 °C 11.8 °C 1022.2 hPa Calm   1.6 km/h 87% 0.0 mm 63.00 W/m2
07:19 13.9 °C 11.8 °C 1022.2 hPa Calm     87% 0.0 mm 69.00 W/m2
07:24 14.1 °C 12.0 °C 1022.2 hPa Calm     87% 0.0 mm 83.00 W/m2
07:29 14.2 °C 12.1 °C 1022.2 hPa Calm   1.6 km/h 87% 0.0 mm 67.00 W/m2
07:34 14.3 °C 12.2 °C 1022.2 hPa Calm     87% 0.0 mm 83.00 W/m2
07:39 14.4 °C 12.3 °C 1022.2 hPa Calm   1.6 km/h 87% 0.0 mm 118.00 W/m2
07:44 14.6 °C 12.5 °C 1022.2 hPa WNW 1.4 km/h 1.6 km/h 87% 0.0 mm 144.00 W/m2
07:49 14.7 °C 12.4 °C 1022.2 hPa WNW 1.4 km/h 3.2 km/h 86% 0.0 mm 174.00 W/m2
07:54 14.9 °C 12.6 °C 1022.2 hPa Calm   4.8 km/h 86% 0.0 mm 178.00 W/m2
07:59 15.1 °C 12.6 °C 1022.2 hPa West 3.2 km/h 4.8 km/h 85% 0.0 mm 146.00 W/m2
08:04 15.3 °C 12.8 °C 1022.2 hPa West 1.4 km/h 1.6 km/h 85% 0.0 mm 156.00 W/m2
08:09 15.5 °C 12.8 °C 1022.2 hPa Calm   4.8 km/h 84% 0.0 mm 223.00 W/m2
08:14 15.7 °C 12.8 °C 1022.2 hPa NW 6.4 km/h 8.0 km/h 83% 0.0 mm 216.00 W/m2
08:19 15.8 °C 12.7 °C 1022.2 hPa North 3.2 km/h 12.9 km/h 82% 0.0 mm 178.00 W/m2
08:24 15.8 °C 12.5 °C 1022.2 hPa NW 3.2 km/h 11.3 km/h 81% 0.0 mm 153.00 W/m2
08:29 15.8 °C 12.5 °C 1022.2 hPa NW 1.4 km/h 9.7 km/h 81% 0.0 mm 148.00 W/m2
08:34 15.9 °C 12.5 °C 1022.2 hPa NNW 7.9 km/h 8.0 km/h 80% 0.0 mm 165.00 W/m2
08:39 16.0 °C 12.6 °C 1022.2 hPa North 7.9 km/h 11.3 km/h 80% 0.0 mm 165.00 W/m2
08:44 16.0 °C 12.6 °C 1022.2 hPa North 3.2 km/h 9.7 km/h 80% 0.0 mm 160.00 W/m2
08:49 16.0 °C 12.6 °C 1022.2 hPa NNW 7.9 km/h 9.7 km/h 80% 0.0 mm 188.00 W/m2
08:54 16.0 °C 12.6 °C 1022.6 hPa North 13.0 km/h 14.5 km/h 80% 0.0 mm 193.00 W/m2
08:59 16.0 °C 12.4 °C 1022.6 hPa North 3.2 km/h 6.4 km/h 79% 0.0 mm 153.00 W/m2
09:04 16.0 °C 12.4 °C 1022.6 hPa NNE 13.0 km/h 16.1 km/h 79% 0.0 mm 148.00 W/m2
09:09 15.8 °C 12.2 °C 1022.6 hPa North 6.4 km/h 17.7 km/h 79% 0.0 mm 153.00 W/m2
09:14 15.8 °C 12.2 °C 1022.6 hPa NNE 7.9 km/h 14.5 km/h 79% 0.0 mm 151.00 W/m2
09:19 15.8 °C 12.4 °C 1022.6 hPa North 4.7 km/h 9.7 km/h 80% 0.0 mm 139.00 W/m2
09:24 15.8 °C 12.4 °C 1022.6 hPa Calm   14.5 km/h 80% 0.0 mm 104.00 W/m2
09:29 15.4 °C 12.0 °C 1022.6 hPa NNE 7.9 km/h 12.9 km/h 80% 0.0 mm 116.00 W/m2
09:34 15.4 °C 12.2 °C 1022.6 hPa NNW 6.4 km/h 11.3 km/h 81% 0.0 mm 135.00 W/m2
09:39 15.3 °C 12.2 °C 1022.6 hPa NNW 4.7 km/h 14.5 km/h 82% 0.0 mm 165.00 W/m2
09:44 15.3 °C 12.2 °C 1022.6 hPa Calm   8.0 km/h 82% 0.0 mm 192.00 W/m2
09:49 15.4 °C 12.3 °C 1022.6 hPa Calm   8.0 km/h 82% 0.0 mm 156.00 W/m2
09:54 15.6 °C 12.5 °C 1022.9 hPa North 6.4 km/h 11.3 km/h 82% 0.0 mm 190.00 W/m2
09:59 15.5 °C 12.3 °C 1022.9 hPa NNE 11.1 km/h 11.3 km/h 81% 0.0 mm 188.00 W/m2
10:04 15.5 °C 12.3 °C 1022.9 hPa North 9.7 km/h 12.9 km/h 81% 0.0 mm 209.00 W/m2
10:09 15.6 °C 12.4 °C 1022.9 hPa NNE 9.7 km/h 16.1 km/h 81% 0.0 mm 301.00 W/m2
10:14 15.7 °C 12.6 °C 1022.9 hPa NNW 7.9 km/h 8.0 km/h 82% 0.0 mm 334.00 W/m2
10:19 15.8 °C 12.5 °C 1022.9 hPa NNW 3.2 km/h 8.0 km/h 81% 0.0 mm 343.00 W/m2
10:24 16.0 °C 12.7 °C 1022.9 hPa NW 7.9 km/h 12.9 km/h 81% 0.0 mm 408.00 W/m2
10:29 16.0 °C 12.7 °C 1022.9 hPa NNE 13.0 km/h 14.5 km/h 81% 0.0 mm 318.00 W/m2
10:34 16.0 °C 12.6 °C 1022.9 hPa NNW 7.9 km/h 16.1 km/h 80% 0.0 mm 403.00 W/m2
10:39 16.3 °C 12.5 °C 1022.9 hPa Calm   11.3 km/h 78% 0.0 mm 408.00 W/m2
10:44 16.4 °C 12.2 °C 1022.9 hPa NW 3.2 km/h 8.0 km/h 76% 0.0 mm 392.00 W/m2
10:49 16.7 °C 12.4 °C 1022.9 hPa NNW 9.7 km/h 12.9 km/h 76% 0.0 mm 378.00 W/m2
10:54 16.8 °C 12.3 °C 1022.6 hPa NNW 4.7 km/h 14.5 km/h 75% 0.0 mm 271.00 W/m2
10:59 16.7 °C 12.2 °C 1022.9 hPa North 3.2 km/h 11.3 km/h 75% 0.0 mm 248.00 W/m2
11:04 16.5 °C 11.8 °C 1022.9 hPa NNE 7.9 km/h 19.3 km/h 74% 0.0 mm 360.00 W/m2
11:09 16.9 °C 12.0 °C 1022.9 hPa North 7.9 km/h 8.0 km/h 73% 0.0 mm 397.00 W/m2
11:14 17.2 °C 11.9 °C 1022.6 hPa NW 7.9 km/h 14.5 km/h 71% 0.0 mm 392.00 W/m2
11:19 17.2 °C 11.9 °C 1022.9 hPa WNW 7.9 km/h 19.3 km/h 71% 0.0 mm 431.00 W/m2
11:24 17.5 °C 12.2 °C 1022.9 hPa NNE 4.7 km/h 9.7 km/h 71% 0.0 mm 420.00 W/m2
11:29 17.7 °C 12.2 °C 1022.9 hPa North 9.7 km/h 11.3 km/h 70% 0.0 mm 431.00 W/m2
11:34 17.5 °C 12.0 °C 1022.9 hPa WNW 11.1 km/h 12.9 km/h 70% 0.0 mm 211.00 W/m2
11:39 17.3 °C 12.0 °C 1022.9 hPa NW 9.7 km/h 14.5 km/h 71% 0.0 mm 171.00 W/m2
11:44 17.0 °C 11.7 °C 1022.9 hPa NW 6.4 km/h 12.9 km/h 71% 0.0 mm 155.00 W/m2
11:49 16.9 °C 11.8 °C 1022.9 hPa WNW 6.4 km/h 12.9 km/h 72% 0.0 mm 163.00 W/m2
11:54 16.9 °C 11.8 °C 1022.9 hPa NW 7.9 km/h 9.7 km/h 72% 0.0 mm 204.00 W/m2
11:59 16.9 °C 11.8 °C 1022.9 hPa WNW 7.9 km/h 11.3 km/h 72% 0.0 mm 216.00 W/m2
12:04 16.9 °C 11.8 °C 1023.2 hPa NW 1.4 km/h 11.3 km/h 72% 0.0 mm 178.00 W/m2
12:09 17.0 °C 11.9 °C 1022.9 hPa WNW 6.4 km/h 8.0 km/h 72% 0.0 mm 167.00 W/m2
12:14 16.8 °C 11.7 °C 1022.9 hPa NW 4.7 km/h 14.5 km/h 72% 0.0 mm 178.00 W/m2
12:19 16.8 °C 11.9 °C 1022.9 hPa NW 7.9 km/h 9.7 km/h 73% 0.0 mm 209.00 W/m2
12:24 16.9 °C 12.0 °C 1022.9 hPa WNW 4.7 km/h 11.3 km/h 73% 0.0 mm 246.00 W/m2
12:29 17.0 °C 11.7 °C 1022.9 hPa NW 13.0 km/h 14.5 km/h 71% 0.0 mm 290.00 W/m2
12:34 17.1 °C 11.6 °C 1022.9 hPa WNW 4.7 km/h 8.0 km/h 70% 0.0 mm 318.00 W/m2
12:39 17.3 °C 11.8 °C 1022.9 hPa West 4.7 km/h 11.3 km/h 70% 0.0 mm 348.00 W/m2
12:44 17.5 °C 11.7 °C 1022.9 hPa Calm   9.7 km/h 69% 0.0 mm 388.00 W/m2
12:49 17.8 °C 12.0 °C 1022.9 hPa NNW 6.4 km/h 8.0 km/h 69% 0.0 mm 394.00 W/m2
12:54 18.0 °C 11.8 °C 1022.9 hPa WNW 3.2 km/h 6.4 km/h 67% 0.0 mm 246.00 W/m2
12:59 17.8 °C 11.6 °C 1022.9 hPa North 4.7 km/h 16.1 km/h 67% 0.0 mm 176.00 W/m2
13:04 17.7 °C 11.7 °C 1022.9 hPa NNE 3.2 km/h 9.7 km/h 68% 0.0 mm 155.00 W/m2
13:09 17.7 °C 11.5 °C 1022.9 hPa NNW 7.9 km/h 9.7 km/h 67% 0.0 mm 171.00 W/m2
13:14 17.5 °C 11.3 °C 1022.9 hPa NE 1.4 km/h 16.1 km/h 67% 0.0 mm 221.00 W/m2
13:19 17.7 °C 11.5 °C 1022.9 hPa North 7.9 km/h 9.7 km/h 67% 0.0 mm 329.00 W/m2
13:24 17.9 °C 11.5 °C 1022.9 hPa North 14.5 km/h 14.5 km/h 66% 0.0 mm 364.00 W/m2
13:29 18.0 °C 11.6 °C 1022.9 hPa Calm   6.4 km/h 66% 0.0 mm 404.00 W/m2
13:34 18.5 °C 11.6 °C 1022.9 hPa North 3.2 km/h 12.9 km/h 64% 0.0 mm 404.00 W/m2
13:39 18.8 °C 11.4 °C 1022.9 hPa NW 4.7 km/h 11.3 km/h 62% 0.0 mm 443.00 W/m2
13:44 18.7 °C 12.4 °C 1022.9 hPa Calm   9.7 km/h 67% 0.0 mm 454.00 W/m2
13:49 19.3 °C 12.8 °C 1022.6 hPa ENE 7.9 km/h 8.0 km/h 66% 0.0 mm 399.00 W/m2
13:54 19.1 °C 12.4 °C 1022.6 hPa Calm   9.7 km/h 65% 0.0 mm 371.00 W/m2
13:59 18.7 °C 12.2 °C 1022.6 hPa NW 6.4 km/h 11.3 km/h 66% 0.0 mm 348.00 W/m2
14:04 18.6 °C 12.1 °C 1022.6 hPa NNE 9.7 km/h 19.3 km/h 66% 0.0 mm 380.00 W/m2
14:09 18.7 °C 12.2 °C 1022.6 hPa NNW 4.7 km/h 11.3 km/h 66% 0.0 mm 487.00 W/m2
14:14 19.0 °C 12.3 °C 1022.6 hPa NW 4.7 km/h 6.4 km/h 65% 0.0 mm 468.00 W/m2
14:19 19.1 °C 12.4 °C 1022.6 hPa NNE 4.7 km/h 14.5 km/h 65% 0.0 mm 645.00 W/m2
14:24 19.3 °C 12.6 °C 1022.6 hPa NE 7.9 km/h 12.9 km/h 65% 0.0 mm 411.00 W/m2
14:29 19.7 °C 12.7 °C 1022.2 hPa WNW 3.2 km/h 12.9 km/h 64% 0.0 mm 496.00 W/m2
14:34 19.2 °C 12.2 °C 1022.2 hPa NW 7.9 km/h 12.9 km/h 64% 0.0 mm 355.00 W/m2
14:39 19.3 °C 12.3 °C 1022.2 hPa NNW 7.9 km/h 9.7 km/h 64% 0.0 mm 788.00 W/m2
14:44 19.5 °C 12.3 °C 1022.2 hPa Calm   11.3 km/h 63% 0.0 mm 388.00 W/m2
14:49 20.1 °C 12.3 °C 1022.2 hPa NW 9.7 km/h 9.7 km/h 61% 0.0 mm 643.00 W/m2
14:54 20.1 °C 12.6 °C 1022.2 hPa WNW 3.2 km/h 9.7 km/h 62% 0.0 mm 519.00 W/m2
14:59 19.8 °C 12.3 °C 1022.2 hPa NW 1.4 km/h 9.7 km/h 62% 0.0 mm 339.00 W/m2
15:04 19.5 °C 12.0 °C 1022.2 hPa NW 6.4 km/h 8.0 km/h 62% 0.0 mm 334.00 W/m2
15:09 19.9 °C 12.4 °C 1022.2 hPa NE 1.4 km/h 11.3 km/h 62% 0.0 mm 359.00 W/m2
15:14 20.7 °C 12.7 °C 1022.2 hPa ENE 1.4 km/h 9.7 km/h 60% 0.0 mm 352.00 W/m2
15:19 20.5 °C 12.7 °C 1022.2 hPa NE 4.7 km/h 6.4 km/h 61% 0.0 mm 302.00 W/m2
15:24 20.2 °C 12.4 °C 1022.2 hPa Calm   6.4 km/h 61% 0.0 mm 265.00 W/m2
15:29 20.2 °C 12.4 °C 1022.2 hPa Calm   4.8 km/h 61% 0.0 mm 255.00 W/m2
15:34 20.3 °C 12.8 °C 1022.2 hPa Calm   6.4 km/h 62% 0.0 mm 265.00 W/m2
15:39 20.2 °C 12.4 °C 1022.2 hPa Calm   3.2 km/h 61% 0.0 mm 306.00 W/m2
15:44 20.6 °C 12.8 °C 1022.2 hPa WNW 9.7 km/h 9.7 km/h 61% 0.0 mm 970.00 W/m2
15:49 20.6 °C 12.6 °C 1022.2 hPa WNW 1.4 km/h 6.4 km/h 60% 0.0 mm 425.00 W/m2
15:54 20.7 °C 12.7 °C 1021.9 hPa WNW 4.7 km/h 6.4 km/h 60% 0.0 mm 399.00 W/m2
15:59 20.7 °C 12.7 °C 1022.2 hPa Calm   3.2 km/h 60% 0.0 mm 387.00 W/m2
16:04 21.0 °C 12.4 °C 1021.9 hPa WNW 3.2 km/h 4.8 km/h 58% 0.0 mm 276.00 W/m2
16:09 21.0 °C 12.9 °C 1021.9 hPa WNW 1.4 km/h 6.4 km/h 60% 0.0 mm 868.00 W/m2
16:14 21.3 °C 13.2 °C 1021.9 hPa NW 12.9 km/h 12.9 km/h 60% 0.0 mm 884.00 W/m2
16:19 21.4 °C 12.8 °C 1021.9 hPa North 1.4 km/h 12.9 km/h 58% 0.0 mm 823.00 W/m2
16:24 22.0 °C 13.1 °C 1021.9 hPa Calm   8.0 km/h 57% 0.0 mm 339.00 W/m2
16:29 21.6 °C 12.7 °C 1021.9 hPa NNW 4.7 km/h 9.7 km/h 57% 0.0 mm 255.00 W/m2
16:34 21.2 °C 12.9 °C 1021.9 hPa NW 7.9 km/h 9.7 km/h 59% 0.0 mm 207.00 W/m2
16:39 20.7 °C 12.9 °C 1022.2 hPa NW 6.4 km/h 9.7 km/h 61% 0.0 mm 214.00 W/m2
16:44 20.4 °C 12.6 °C 1021.9 hPa Calm   8.0 km/h 61% 0.0 mm 234.00 W/m2
16:49 20.4 °C 12.9 °C 1021.9 hPa NW 4.7 km/h 9.7 km/h 62% 0.0 mm 234.00 W/m2
16:54 20.4 °C 12.6 °C 1021.9 hPa Calm   4.8 km/h 61% 0.0 mm 239.00 W/m2
16:59 20.7 °C 12.9 °C 1021.9 hPa Calm   3.2 km/h 61% 0.0 mm 236.00 W/m2
17:04 21.1 °C 13.0 °C 1021.9 hPa WNW 1.4 km/h 9.7 km/h 60% 0.0 mm 705.00 W/m2
17:09 21.3 °C 13.2 °C 1021.9 hPa NW 3.2 km/h 8.0 km/h 60% 0.0 mm 341.00 W/m2
17:14 21.2 °C 13.1 °C 1021.9 hPa NNW 4.7 km/h 6.4 km/h 60% 0.0 mm 251.00 W/m2
17:19 21.0 °C 12.9 °C 1021.9 hPa NNW 11.3 km/h 11.3 km/h 60% 0.0 mm 186.00 W/m2
17:24 20.9 °C 13.1 °C 1021.9 hPa Calm   4.8 km/h 61% 0.0 mm 179.00 W/m2
17:29 21.2 °C 13.4 °C 1021.6 hPa NNW 4.7 km/h 11.3 km/h 61% 0.0 mm 200.00 W/m2
17:34 20.9 °C 13.1 °C 1021.9 hPa NW 4.7 km/h 8.0 km/h 61% 0.0 mm 276.00 W/m2
17:39 21.1 °C 13.3 °C 1021.6 hPa NW 3.2 km/h 9.7 km/h 61% 0.0 mm 557.00 W/m2
17:44 21.7 °C 13.6 °C 1021.9 hPa NW 4.7 km/h 4.8 km/h 60% 0.0 mm 577.00 W/m2
17:49 21.7 °C 13.3 °C 1021.6 hPa Calm   4.8 km/h 59% 0.0 mm 183.00 W/m2
17:54 21.6 °C 13.8 °C 1021.6 hPa NW 3.2 km/h 8.0 km/h 61% 0.0 mm 227.00 W/m2
17:59 21.2 °C 13.4 °C 1021.6 hPa NW 7.9 km/h 12.9 km/h 61% 0.0 mm 167.00 W/m2
18:04 21.2 °C 13.6 °C 1021.9 hPa North 11.1 km/h 11.3 km/h 62% 0.0 mm 364.00 W/m2
18:09 21.0 °C 13.4 °C 1021.9 hPa NNE 14.5 km/h 14.5 km/h 62% 0.0 mm 148.00 W/m2
18:14 20.9 °C 13.3 °C 1021.9 hPa North 9.7 km/h 9.7 km/h 62% 0.0 mm 121.00 W/m2
18:19 20.8 °C 13.5 °C 1021.9 hPa NNE 9.7 km/h 11.3 km/h 63% 0.0 mm 118.00 W/m2
18:24 20.8 °C 13.5 °C 1021.9 hPa NNW 3.2 km/h 9.7 km/h 63% 0.0 mm 364.00 W/m2
18:29 20.9 °C 13.6 °C 1021.9 hPa NNW 4.7 km/h 8.0 km/h 63% 0.0 mm 357.00 W/m2
18:34 21.0 °C 13.7 °C 1021.9 hPa NNE 9.7 km/h 9.7 km/h 63% 0.0 mm 334.00 W/m2
18:39 21.0 °C 13.7 °C 1021.9 hPa North 6.4 km/h 12.9 km/h 63% 0.0 mm 350.00 W/m2
18:44 21.2 °C 13.9 °C 1021.9 hPa Calm   8.0 km/h 63% 0.0 mm 374.00 W/m2
18:49 21.4 °C 13.8 °C 1021.6 hPa North 3.2 km/h 9.7 km/h 62% 0.0 mm 353.00 W/m2
18:54 21.6 °C 14.0 °C 1021.9 hPa North 1.4 km/h 9.7 km/h 62% 0.0 mm 232.00 W/m2
18:59 21.5 °C 13.9 °C 1021.9 hPa NNW 1.4 km/h 6.4 km/h 62% 0.0 mm 329.00 W/m2
19:04 21.7 °C 14.1 °C 1021.6 hPa NNW 1.4 km/h 8.0 km/h 62% 0.0 mm 271.00 W/m2
19:09 21.3 °C 13.7 °C 1021.6 hPa NW 7.9 km/h 11.3 km/h 62% 0.0 mm 77.00 W/m2
19:14 20.9 °C 13.8 °C 1021.6 hPa NW 7.9 km/h 8.0 km/h 64% 0.0 mm 65.00 W/m2
19:19 20.8 °C 14.0 °C 1021.6 hPa NNE 1.4 km/h 12.9 km/h 65% 0.0 mm 53.00 W/m2
19:24 20.7 °C 14.1 °C 1021.6 hPa NNE 1.4 km/h 3.2 km/h 66% 0.0 mm 53.00 W/m2
19:29 20.6 °C 14.0 °C 1021.6 hPa NNE 6.4 km/h 9.7 km/h 66% 0.0 mm 54.00 W/m2
19:34 20.4 °C 14.1 °C 1021.6 hPa NNE 4.7 km/h 8.0 km/h 67% 0.0 mm 47.00 W/m2
19:39 20.3 °C 14.0 °C 1021.9 hPa NNE 3.2 km/h 11.3 km/h 67% 0.0 mm 46.00 W/m2
19:44 20.0 °C 13.9 °C 1021.9 hPa North 4.7 km/h 12.9 km/h 68% 0.0 mm 54.00 W/m2
19:49 19.8 °C 13.9 °C 1021.9 hPa North 9.7 km/h 11.3 km/h 69% 0.0 mm 74.00 W/m2
19:54 19.8 °C 13.9 °C 1021.9 hPa North 9.7 km/h 11.3 km/h 69% 0.0 mm 79.00 W/m2
19:59 19.7 °C 13.9 °C 1021.9 hPa North 4.7 km/h 11.3 km/h 69% 0.0 mm 70.00 W/m2
20:04 19.7 °C 14.1 °C 1021.9 hPa NNE 6.4 km/h 9.7 km/h 70% 0.0 mm 63.00 W/m2
20:09 19.7 °C 14.1 °C 1021.9 hPa North 4.7 km/h 11.3 km/h 70% 0.0 mm 76.00 W/m2
20:14 19.8 °C 13.9 °C 1021.9 hPa North 1.4 km/h 6.4 km/h 69% 0.0 mm 60.00 W/m2
20:19 19.9 °C 14.3 °C 1021.9 hPa North 3.2 km/h 6.4 km/h 70% 0.0 mm 44.00 W/m2
20:24 20.1 °C 14.5 °C 1021.6 hPa North 1.4 km/h 6.4 km/h 70% 0.0 mm 37.00 W/m2
20:29 20.1 °C 14.5 °C 1021.9 hPa North 4.7 km/h 6.4 km/h 70% 0.0 mm 35.00 W/m2
20:34 20.0 °C 14.4 °C 1021.6 hPa NNE 11.3 km/h 11.3 km/h 70% 0.0 mm 30.00 W/m2
20:39 20.0 °C 14.6 °C 1021.6 hPa Calm   6.4 km/h 71% 0.0 mm 26.00 W/m2
20:44 20.0 °C 14.6 °C 1021.9 hPa NNE 1.4 km/h 6.4 km/h 71% 0.0 mm 23.00 W/m2
20:49 20.0 °C 14.6 °C 1021.9 hPa NNE 6.4 km/h 9.7 km/h 71% 0.0 mm 19.00 W/m2
20:54 19.9 °C 14.5 °C 1021.9 hPa North 4.7 km/h 8.0 km/h 71% 0.0 mm 16.00 W/m2
20:59 19.8 °C 14.4 °C 1021.9 hPa Calm   4.8 km/h 71% 0.0 mm 14.00 W/m2
21:04 19.6 °C 14.2 °C 1021.9 hPa NNE 4.7 km/h 8.0 km/h 71% 0.0 mm 12.00 W/m2
21:09 19.5 °C 14.1 °C 1021.9 hPa NNE 7.9 km/h 9.7 km/h 71% 0.0 mm 9.00 W/m2
21:14 19.3 °C 14.1 °C 1021.9 hPa NNE 4.7 km/h 9.7 km/h 72% 0.0 mm 5.00 W/m2
21:19 19.2 °C 14.0 °C 1021.9 hPa NNE 13.0 km/h 12.9 km/h 72% 0.0 mm 0.00 W/m2
21:24 19.0 °C 13.8 °C 1021.9 hPa NNE 4.7 km/h 9.7 km/h 72% 0.0 mm 0.00 W/m2
21:29 18.9 °C 14.0 °C 1021.9 hPa NNE 3.2 km/h 12.9 km/h 73% 0.0 mm 0.00 W/m2
21:34 18.9 °C 14.0 °C 1021.9 hPa NNE 1.4 km/h 4.8 km/h 73% 0.0 mm 0.00 W/m2
21:39 18.7 °C 13.8 °C 1021.9 hPa Calm   4.8 km/h 73% 0.0 mm 0.00 W/m2
21:44 18.7 °C 13.8 °C 1022.2 hPa NNE 1.4 km/h 3.2 km/h 73% 0.0 mm 0.00 W/m2
21:49 18.5 °C 13.6 °C 1022.2 hPa Calm   4.8 km/h 73% 0.0 mm 0.00 W/m2
21:54 18.4 °C 13.7 °C 1022.2 hPa NNE 4.7 km/h 9.7 km/h 74% 0.0 mm 0.00 W/m2
21:59 18.2 °C 13.5 °C 1022.2 hPa NNE 4.7 km/h 9.7 km/h 74% 0.0 mm 0.00 W/m2
22:04 18.0 °C 13.3 °C 1022.2 hPa NNE 11.3 km/h 11.3 km/h 74% 0.0 mm 0.00 W/m2
22:09 18.0 °C 13.3 °C 1022.2 hPa NNE 1.4 km/h 12.9 km/h 74% 0.0 mm 0.00 W/m2
22:14 17.9 °C 13.4 °C 1022.2 hPa NNE 1.4 km/h 4.8 km/h 75% 0.0 mm 0.00 W/m2
22:19 17.9 °C 13.4 °C 1022.2 hPa NNE 6.4 km/h 9.7 km/h 75% 0.0 mm 0.00 W/m2
22:24 17.9 °C 13.4 °C 1022.2 hPa NNE 4.7 km/h 6.4 km/h 75% 0.0 mm 0.00 W/m2
22:29 17.8 °C 13.3 °C 1022.2 hPa NNE 6.4 km/h 12.9 km/h 75% 0.0 mm 0.00 W/m2
22:34 17.8 °C 13.3 °C 1022.2 hPa Calm   9.7 km/h 75% 0.0 mm 0.00 W/m2
22:39 17.8 °C 13.3 °C 1022.2 hPa NE 4.7 km/h 4.8 km/h 75% 0.0 mm 0.00 W/m2
22:44 17.8 °C 13.3 °C 1022.2 hPa NE 8.0 km/h 8.0 km/h 75% 0.0 mm 0.00 W/m2
22:49 17.8 °C 13.3 °C 1022.2 hPa NE 4.7 km/h 6.4 km/h 75% 0.0 mm 0.00 W/m2
22:54 17.7 °C 13.2 °C 1022.2 hPa North 4.7 km/h 11.3 km/h 75% 0.0 mm 0.00 W/m2
22:59 17.7 °C 13.2 °C 1022.2 hPa NE 6.4 km/h 11.3 km/h 75% 0.0 mm 0.00 W/m2
23:04 17.6 °C 13.3 °C 1022.2 hPa NW 6.4 km/h 16.1 km/h 76% 0.0 mm 0.00 W/m2
23:09 17.5 °C 13.2 °C 1022.2 hPa NNE 6.4 km/h 14.5 km/h 76% 0.0 mm 0.00 W/m2
23:14 17.5 °C 13.2 °C 1022.6 hPa NNE 3.2 km/h 17.7 km/h 76% 0.0 mm 0.00 W/m2
23:19 17.4 °C 13.1 °C 1022.6 hPa NE 9.7 km/h 11.3 km/h 76% 0.0 mm 0.00 W/m2
23:24 17.3 °C 13.0 °C 1022.6 hPa NNE 4.7 km/h 11.3 km/h 76% 0.0 mm 0.00 W/m2
23:29 17.3 °C 13.2 °C 1022.6 hPa ENE 11.1 km/h 12.9 km/h 77% 0.0 mm 0.00 W/m2
23:34 17.2 °C 13.1 °C 1022.6 hPa NE 9.7 km/h 14.5 km/h 77% 0.0 mm 0.00 W/m2
23:39 17.0 °C 12.9 °C 1022.6 hPa NNE 4.7 km/h 9.7 km/h 77% 0.0 mm 0.00 W/m2
23:44 16.9 °C 12.8 °C 1022.6 hPa NNW 7.9 km/h 11.3 km/h 77% 0.0 mm 0.00 W/m2
23:49 16.8 °C 12.9 °C 1022.6 hPa North 24.1 km/h 24.1 km/h 78% 0.0 mm 0.00 W/m2
23:54 16.6 °C 12.7 °C 1022.6 hPa NNE 7.9 km/h 16.1 km/h 78% 0.0 mm 0.00 W/m2
23:59 16.5 °C 12.8 °C 1022.6 hPa NE 11.1 km/h 19.3 km/h 79% 0.0 mm 0.00 W/m2